Home > Weather > Windsor > Past weeks

Flag for Canada Past Weather in Windsor, Ontario, Canada — Yesterday and Last 2 Weeks

Now
81 °F

Partly sunny.


Feels Like: 82 °F
Forecast: 68 / 84 °F
Wind: 13 mph from Southwest

Location: Windsor Weather Station

Current Time: May 27, 2016 at 2:18:20 PM

Latest Report: May 27, 2016 at 2:00 PM


Visibility: 15 mi

Pressure: 29.99 "Hg

Humidity: 54%

Dew Point: 63 °F

Location of WindsorLocation

Past Weather in Windsor — Graph

°F

Windsor Temperature Yesterday

Maximum temperature yesterday: 84 °F (at 3:00 PM)
Minimum temperature yesterday: 66 °F (at 7:00 AM)
Average temperature yesterday: 76 °F

High & Low Weather Summary for the Past Weeks

 TemperatureHumidityPressure
High86 °F (May 25, 3:00 PM)100% (May 13, 12:00 AM)30.26 "Hg (May 13, 12:00 AM)
Low34 °F (May 15, 8:00 AM)27% (May 24, 6:00 PM)29.55 "Hg (May 14, 6:00 AM)
Average60 °F62%30.03 "Hg
* Reported May 12 1:00 PM — May 27 1:00 PM, Windsor, Weather by CustomWeather, © 2016

Note: Actual official high and low records may vary slightly from our data, if they occured in-between our weather recording intervals... More about our weather records

Advertising

Windsor Weather History for the Previous 24 Hours

Scroll right to see more
 ConditionsComfort  
Time TempWeatherWind HumidityBarometerVisibility
1:00 PM
Fri, May 27
82 °FBroken clouds.13 mph55%29.99 "Hg15 mi
12:00 PM79 °FScattered clouds.9 mph65%29.98 "Hg15 mi
11:00 AM77 °FScattered clouds.9 mph69%29.98 "Hg15 mi
10:00 AM75 °FPartly sunny.9 mph74%29.97 "Hg15 mi
9:00 AM73 °FScattered clouds.7 mph74%29.96 "Hg15 mi
8:00 AM70 °FPartly sunny.8 mph83%29.97 "Hg15 mi
7:01 AM68 °FPartly sunny.5 mph83%29.96 "Hg15 mi
6:00 AM64 °FPassing clouds.6 mph94%29.95 "Hg15 mi
5:00 AM66 °FPassing clouds.5 mph88%29.94 "Hg15 mi
4:00 AM68 °FPassing clouds.9 mph88%29.93 "Hg15 mi
3:00 AM70 °FPassing clouds.10 mph88%29.92 "Hg15 mi
2:00 AM72 °FPassing clouds.9 mph83%29.92 "Hg15 mi
1:00 AM73 °FPassing clouds.9 mph78%29.93 "Hg15 mi
12:00 AM73 °FPassing clouds.9 mph78%29.93 "Hg15 mi
11:00 PM
Thu, May 26
75 °FPassing clouds.9 mph74%29.93 "Hg15 mi
10:00 PM75 °FPassing clouds.8 mph74%29.90 "Hg12 mi
9:00 PM79 °FOvercast.8 mph61%29.87 "Hg12 mi
8:00 PM81 °FOvercast.9 mph58%29.88 "Hg12 mi
7:00 PM84 °FOvercast.14 mph48%29.88 "Hg12 mi
6:00 PM84 °FPartly sunny.13 mph51%29.87 "Hg12 mi
5:00 PM84 °FOvercast.20 mph48%29.89 "Hg12 mi
4:00 PM84 °FPartly sunny.18 mph51%29.90 "Hg12 mi
3:00 PM84 °FOvercast.17 mph55%29.92 "Hg15 mi
2:00 PM82 °FPartly sunny.15 mph58%29.94 "Hg15 mi
Weather by CustomWeather, © 2016

See weather overviewHow to use our weather pages